METEOR 2-5 DEB, 31404

Orbit data source: Space-Track

METEOR 2-5 DEB, 31404 is space debris in LEO originally from a launch on Wed, 31 Oct 1979 UTC launched from the Plesetsk Missile And Space Complex (PKMTR). Debris objects in space refer to the collection of defunct objects orbiting the Earth. Examples of debris include non-operational satellites, rocket bodies, and fragments generated from explosions, collisions, or faulty payload assembly.

Loading next visibility...
Identifier
31404, 1979-095T
Orbit
LEO
Country
Flag of CISCIS
Related business
Manufacturer
Unknown
Mission
Spacecraft
Bus & Motor
Unknown
Mass
Unknown
Launch date (UTC)
1979-10-31 (47 years ago)
Launch vehicle
Unknown
Launch site
Plesetsk Missile And Space Complex (PKMTR)
Object type
Payload
Rocket body
Debris
Shape & HBR
Unknown shape, 0.1 m
Radar Cross Section
Small (<0.1 m²)

Expand to show TLE details & history
Last TLE update: 3 days ago

TLE from 3 days ago
0 METEOR 2-5 DEB
1 31404U 79095T   26170.91786531  .00018109  00000-0  25632-2 0  9997
2 31404  81.1783  46.6158 0008688  52.6372 323.5702 14.76969097676972
Epoch: 2026-06-19T22:01Z
TLE epoch observation values (Epoch: 2026-06-19T22:01:43.562Z)
Latitude
15.93259°
Longitude
170.56984°
Altitude
636.316 km
Speed
7.544 km/s
True Right ascension
03h 16m 33s
True Declination
15° 50' 26"
Sunlit
Object was in daylight at epoch
Visualization orbit readout
Latitude
Unknown
Longitude
Unknown
Altitude
Unknown
Speed
Unknown
Apparent Right ascension
Unknown
Apparent Declination
Unknown
Sunlit
N/A
Visualization observer readout
Local Sidereal Time
05:34:40
Azimuth
Unknown
Elevation
Unknown
Doppler factor
Unknown
Orbital elements
Apogee altitude
642.09 km
Perigee altitude
629.902 km
Semi-major axis
7,014.133 km
Eccentricity
0.00087
Inclination
81.1783°
RAAN
46.6158°
Arg. of periapsis
52.6372°
True anomaly
323.51103°
Mean anomaly
323.5702°
Eccentric anomaly
323.54062°
Mean motion
3.69473 °/min
Orbital period
97.44 mins
BSTAR
0.0025632
Loading maneuver chart data...
Computing Atmospheric mass density...

Documentation

Showing up to 5 results
|